Temp
28 27 27 27 26 26 26 25 25 25 24 24 24 24 24 24 24 24 24 24 24 24 24 24 24 24 24 24 24 24 24 24 24 24 24 24 24 24 23 23 23 22 22 21 21 21 21 21 21 20 20 20 20 20 20 20 20 20 20 20 20 20 20
28 27 27 27 26 26 26 25 25 25 25 24 24 24 24 24 24 24 24 24 24 24 24 24 23 24 24 24 24 24 24 24 24 24 24 24 24 24 23 23 23 22 22 22 21 21 21 21 21 20 20 20 20 20 20 20 20 20 20 20 20 20 20
27 27 27 27 26 26 26 25 25 25 25 25 24 24 24 24 24 24 24 24 24 24 24 24 24 24 24 24 24 24 24 24 24 24 24 24 24 24 23 23 23 22 22 22 21 21 21 21 21 21 20 20 20 20 20 20 20 20 20 20 20 20 20
27 27 27 27 27 26 26 25 25 25 25 25 25 24 24 24 24 24 24 24 24 24 24 24 24 24 24 24 24 24 24 24 24 24 25 24 24 24 23 23 23 22 22 21 21 21 21 21 21 21 20 20 21 21 20 20 20 20 20 20 20 20 20
28 28 27 27 26 26 26 26 25 25 25 25 25 25 25 25 24 24 24 24 24 24 24 24 23 23 24 24 24 24 25 24 24 25 25 24 24 23 23 23 23 22 22 22 21 21 21 21 21 20 20 21 21 21 20 20 20 20 20 20 20 20 20
27 27 27 26 26 26 26 26 26 25 25 25 25 25 25 25 24 24 24 24 24 24 24 23 23 23 23 23 24 24 25 24 24 25 25 24 24 23 23 23 23 23 22 22 21 21 21 21 21 21 21 21 21 21 20 20 20 20 20 20 20 20 20
28 27 27 27 26 26 26 26 26 26 26 26 25 25 25 25 25 24 24 24 24 24 24 24 23 23 23 23 23 24 24 24 24 25 25 24 24 24 23 23 23 23 22 22 21 21 21 21 21 21 21 21 21 20 20 20 20 20 20 20 20 20 20
28 27 27 27 27 27 26 26 26 26 26 25 25 25 25 25 25 25 24 24 24 24 24 24 24 23 23 23 23 23 23 24 24 24 24 24 24 24 23 23 23 23 22 22 21 21 21 21 21 21 21 21 20 20 20 20 20 20 20 20 20 20 20
28 27 27 27 27 27 26 26 26 25 25 25 25 25 25 25 25 25 25 25 24 24 24 24 24 23 23 23 22 23 23 23 24 24 24 24 24 24 23 24 23 23 22 22 21 21 21 21 21 21 21 20 20 20 20 20 20 20 20 20 20 20 20
28 27 27 27 27 27 26 26 26 25 25 25 25 25 25 25 25 25 25 25 24 24 24 24 24 23 23 22 22 22 23 23 24 24 24 24 24 24 24 24 23 23 22 22 22 22 21 21 21 21 21 20 20 20 20 20 20 20 20 20 20 20 20
28 27 27 27 27 27 26 26 25 25 25 25 25 25 25 25 25 25 25 25 25 24 24 24 24 23 23 22 22 22 22 23 23 23 23 24 24 24 24 24 23 23 22 22 22 22 21 21 21 21 21 20 20 20 20 21 21 21 20 20 20 21 20
27 27 27 27 26 26 26 25 25 25 25 25 25 25 25 25 25 25 25 25 25 25 24 24 24 23 23 22 22 22 22 22 22 23 23 23 23 23 23 24 23 22 22 22 22 22 21 21 21 21 21 21 21 21 21 21 21 21 21 21 21 21 20
27 27 26 26 26 26 26 25 25 25 25 25 25 25 25 25 25 25 25 25 25 25 24 24 24 23 23 22 22 22 22 22 22 22 22 21 22 22 23 23 23 23 22 22 22 22 21 21 21 21 21 21 21 21 21 21 21 21 21 21 21 21 20
27 27 26 26 26 26 26 25 25 25 24 24 25 25 25 25 25 25 25 25 25 25 25 24 24 24 23 22 22 22 22 22 21 20 20 21 22 23 23 23 23 23 22 21 22 22 22 21 21 21 21 21 21 21 21 21 21 21 21 21 21 21 21
27 27 26 26 26 26 26 25 25 25 24 24 24 25 25 25 25 25 25 25 25 25 25 24 24 24 23 22 22 22 22 21 20 19 20 21 23 23 22 23 24 23 22 21 21 22 22 21 21 21 21 21 21 21 21 21 21 21 21 21 21 21 21
28 27 27 26 26 26 26 26 25 25 24 24 24 24 24 24 25 25 25 25 25 25 24 24 24 23 23 22 22 22 21 20 19 19 19 21 23 23 23 23 23 22 22 21 21 22 22 22 22 22 22 21 21 21 21 21 21 21 21 21 21 21 21
28 27 27 26 26 26 26 25 25 25 25 24 23 24 24 24 24 25 25 25 24 24 24 24 24 23 23 23 22 22 21 19 19 19 20 21 23 22 22 23 22 21 21 21 21 22 22 22 22 22 22 22 21 21 22 21 21 21 21 21 21 21 21
28 27 27 26 26 26 26 25 25 25 25 24 23 24 24 24 24 24 24 25 24 24 24 24 24 23 23 23 22 21 20 20 19 20 20 20 20 20 21 22 21 21 20 20 20 21 22 22 22 22 22 22 21 21 21 21 21 21 21 21 21 21 21
28 27 27 26 26 26 26 26 25 25 24 23 24 24 25 25 25 25 25 25 24 24 24 24 24 23 23 22 22 21 20 20 20 20 19 19 18 19 21 21 21 20 20 20 20 21 21 22 22 22 22 22 21 21 21 22 21 21 22 22 21 21 21
27 26 26 26 26 26 25 25 24 23 23 25 25 26 25 25 25 25 25 24 24 24 24 24 23 23 22 22 22 21 20 20 20 19 19 18 18 19 19 20 20 19 20 20 20 20 21 22 22 22 22 22 22 22 22 22 22 22 22 22 22 21 21
27 27 26 26 25 25 25 25 24 22 23 26 26 26 26 26 26 25 25 24 24 24 24 24 23 23 22 22 22 21 20 20 19 18 18 18 19 19 19 19 20 19 19 19 20 20 21 21 22 22 22 22 22 22 22 22 22 22 22 22 21 21 20
26 26 26 26 26 26 25 25 25 24 24 26 26 26 26 26 25 25 24 24 24 24 24 23 23 22 22 22 22 21 21 19 19 18 18 18 19 19 19 19 19 18 18 19 20 20 21 20 21 22 22 22 22 22 22 22 22 22 22 21 21 20 20
25 26 26 26 25 25 24 24 24 25 25 25 25 26 26 25 25 25 24 24 24 23 23 23 23 22 22 22 22 21 20 19 19 18 18 18 19 19 19 18 18 18 19 19 20 20 20 19 20 21 22 22 22 22 22 22 22 21 21 21 21 20 20
24 25 25 23 23 23 22 23 24 24 24 25 25 27 26 25 25 25 24 24 23 23 23 23 22 22 22 22 21 21 20 19 19 18 18 18 19 18 18 18 18 19 19 19 20 20 19 19 19 20 20 21 21 21 21 21 21 21 21 21 21 20 19
25 24 22 21 23 23 22 22 23 23 25 26 27 28 27 26 25 25 24 23 23 23 22 22 21 21 21 21 21 20 20 19 18 18 18 17 17 17 18 18 18 18 19 19 19 19 19 19 19 19 19 20 20 20 20 20 21 21 21 21 21 20 20
27 26 23 21 22 23 22 23 23 23 24 24 25 26 25 24 24 23 22 22 22 22 21 21 21 21 21 21 20 19 19 18 18 18 17 17 17 17 18 18 17 17 18 18 18 18 18 19 19 19 19 19 19 19 19 20 20 21 21 21 20 20 20
23 23 22 20 21 22 22 23 23 22 22 22 23 23 22 23 23 22 21 21 21 21 20 20 21 21 20 20 19 18 18 18 18 17 17 18 18 18 18 18 17 18 18 18 18 18 18 19 19 19 19 19 18 18 19 19 19 19 20 20 19 19 19
22 22 21 21 21 22 23 23 22 22 21 21 22 22 22 23 22 21 21 21 20 20 20 20 20 20 20 19 18 18 18 18 18 18 18 18 17 17 17 17 17 18 18 18 19 18 18 19 19 19 18 18 18 19 19 19 19 19 19 19 19 19 19
22 21 20 20 20 21 23 22 21 20 20 21 21 22 22 22 21 20 20 20 19 20 20 20 20 19 19 18 18 17 18 18 18 18 17 17 16 16 17 17 18 18 19 19 19 18 18 18 18 18 18 18 18 19 18 18 18 18 18 19 19 18 18
22 21 20 19 19 21 22 21 19 20 20 21 21 22 22 22 21 20 19 19 19 20 20 19 19 19 18 18 18 18 18 18 18 18 17 17 17 18 18 18 19 19 20 19 18 17 17 18 18 18 17 18 18 18 18 18 17 17 18 18 18 18 18
21 21 20 19 20 21 22 20 19 20 20 20 21 22 22 22 21 20 19 19 19 20 19 19 18 18 18 18 18 19 19 18 17 17 17 18 18 18 19 19 19 19 19 19 18 18 18 18 17 17 17 17 17 17 17 17 17 18 18 18 18 17 17
21 19 19 19 20 21 22 21 20 20 19 20 21 21 21 22 22 21 19 19 19 19 19 18 18 18 17 18 19 19 18 17 17 17 18 18 18 18 18 18 18 18 18 18 18 18 18 18 17 17 17 16 16 17 17 17 18 18 18 18 17 17 16
22 19 18 19 20 21 21 21 19 18 18 19 20 21 21 21 22 21 20 19 19 19 19 18 18 18 18 18 18 18 17 17 17 17 18 18 18 18 17 17 18 18 17 17 18 18 17 17 16 16 17 17 17 17 17 18 18 18 18 18 17 16 15
20 18 18 20 21 21 21 20 18 18 19 20 20 21 21 21 21 21 20 19 19 18 18 18 18 18 18 17 17 17 17 17 17 17 18 18 18 18 18 18 19 20 19 18 19 18 17 17 17 17 17 17 17 17 18 18 18 18 18 17 16 15 14
18 18 19 19 20 20 21 20 19 19 19 20 20 20 20 20 20 20 20 19 18 18 19 18 18 18 17 17 17 17 17 18 18 18 18 18 18 19 19 20 19 19 19 19 19 18 18 17 18 18 18 18 18 18 18 18 18 18 17 16 15 14 13
17 18 19 19 19 19 20 21 20 19 19 19 18 18 19 19 19 19 19 19 19 20 19 18 17 17 16 16 17 17 18 18 18 18 18 19 19 19 19 19 18 17 18 18 18 18 18 17 18 19 19 19 19 18 18 18 17 17 16 15 14 13 12
17 18 19 19 19 18 18 19 19 18 17 17 17 18 18 18 18 19 19 20 20 20 20 18 17 17 17 17 18 18 18 18 18 18 19 20 20 19 18 17 16 16 17 17 17 17 17 17 18 18 18 18 18 17 17 17 17 16 15 15 14 13 12
18 19 19 19 18 17 17 17 17 17 17 17 17 18 18 18 18 18 19 20 20 21 20 19 18 18 18 18 18 19 19 19 19 19 19 19 19 18 17 16 15 15 15 15 15 16 16 16 17 17 17 17 17 17 17 16 16 15 14 14 13 12 12
Height
737 739 740 742 744 746 748 750 753 756 758 761 763 765 768 771 772 774 776 777 778 779 781 783 785 787 788 791 793 795 797 799 801 802 804 805 807 808 809 811 812 814 816 818 819 821 822 823 824 824 825 826 826 826 827 828 829 829 829 829 829 829 829
733 735 737 738 740 743 744 746 749 752 755 757 760 763 765 767 769 770 771 772 773 774 777 779 781 783 785 788 791 793 795 797 799 801 802 803 805 807 808 809 811 813 815 816 818 819 821 821 822 823 824 824 824 825 826 826 827 828 828 828 828 828 828
729 731 731 733 735 737 739 742 745 747 750 753 756 760 761 762 764 764 766 768 769 771 774 776 778 780 783 785 788 790 792 795 796 798 799 801 803 805 807 808 809 811 813 814 816 817 818 819 820 821 822 822 823 823 824 825 825 826 826 827 827 826 826
723 724 725 728 730 732 734 737 740 743 746 748 751 753 755 757 759 761 763 765 766 768 770 772 774 776 780 782 785 788 790 792 794 795 797 798 801 803 805 806 808 809 810 812 814 815 816 817 818 819 820 821 822 822 823 823 824 824 825 825 826 825 825
718 719 723 726 727 730 731 733 736 739 742 745 747 750 751 753 757 760 762 764 765 767 768 771 773 775 778 780 782 785 786 788 790 792 793 796 798 800 801 803 805 806 808 810 811 812 813 814 815 816 818 819 820 821 821 822 823 823 824 824 824 824 824
716 717 719 721 723 725 726 728 731 734 737 740 742 745 747 750 755 757 759 761 763 765 768 770 772 773 775 777 778 781 782 783 786 788 790 793 795 797 799 801 803 804 806 807 808 809 811 812 813 815 816 817 819 820 820 821 821 822 822 822 823 823 823
711 713 714 716 717 720 722 724 727 729 733 735 738 742 744 748 751 752 755 758 759 762 765 766 768 769 771 772 774 776 778 780 782 784 787 789 791 794 796 798 800 802 803 804 805 807 809 811 812 814 815 816 817 819 819 820 820 820 820 821 821 821 822
705 708 710 711 712 715 718 720 723 727 730 734 737 740 742 745 747 749 751 753 755 758 760 761 763 764 766 768 770 772 774 776 779 780 782 785 788 791 794 796 798 799 801 802 803 805 807 810 812 813 814 815 816 817 818 818 818 819 819 819 820 820 820
701 704 705 707 709 711 714 716 720 724 727 730 733 734 737 739 741 744 746 748 750 752 753 755 758 760 762 765 767 768 770 773 775 777 779 781 783 786 789 792 794 797 799 801 803 804 806 808 810 812 813 814 815 816 816 817 817 817 817 818 818 818 818
699 702 702 705 707 709 712 715 718 721 723 726 728 729 732 734 736 739 741 743 746 747 749 752 755 758 760 762 763 765 767 769 771 773 776 778 779 782 786 789 792 795 798 801 802 802 803 806 808 810 812 812 813 814 815 815 816 816 816 816 817 817 817
698 701 702 705 707 709 711 714 716 718 719 721 724 726 728 730 732 734 736 740 742 744 747 750 753 755 757 758 761 763 764 766 767 769 771 774 777 780 784 786 789 793 795 797 799 799 801 803 805 808 809 810 811 812 813 814 814 815 815 815 815 815 815
697 700 701 703 705 706 709 711 712 714 715 718 720 722 725 727 729 732 734 737 740 742 745 748 751 753 754 756 758 759 761 762 764 766 770 775 779 783 787 789 790 792 794 795 796 797 799 801 803 805 806 808 809 810 811 812 812 813 813 813 813 813 813
695 698 699 700 702 704 707 709 710 711 713 715 717 719 722 724 726 729 732 734 737 740 744 747 749 750 751 753 754 755 756 757 759 766 773 780 786 790 793 795 793 793 794 794 794 796 798 799 801 802 804 805 807 808 809 809 810 810 810 810 810 811 811
695 697 698 700 701 703 705 706 707 709 710 712 715 717 720 722 724 727 729 731 734 738 741 743 745 746 747 748 750 750 750 752 758 767 775 780 785 788 790 791 791 791 793 794 794 794 795 797 799 801 802 803 804 805 805 806 806 807 807 807 808 808 808
693 695 696 698 699 701 702 703 704 706 708 709 713 715 717 720 722 724 727 729 732 735 737 738 739 740 742 744 745 746 749 754 761 768 772 773 775 778 780 781 784 786 790 793 793 792 794 796 798 799 800 800 801 801 802 802 803 803 804 804 805 805 806
690 691 692 694 696 697 698 699 701 703 706 708 710 712 714 717 719 722 724 727 730 732 733 734 735 737 739 741 742 747 753 760 766 771 771 767 766 769 773 777 780 782 786 790 792 791 792 794 795 796 797 797 797 798 798 799 800 800 801 802 802 803 803
686 687 688 690 692 694 696 698 700 703 704 706 707 709 712 714 717 720 722 725 727 728 729 732 734 736 737 739 742 747 752 754 757 761 761 758 758 762 769 777 780 781 784 787 789 790 791 792 792 793 793 794 794 795 795 796 796 797 798 799 800 800 801
680 681 684 687 689 692 694 696 698 699 700 702 704 707 709 712 715 718 719 722 724 726 728 731 732 733 735 737 742 746 746 745 746 748 749 751 757 762 769 774 776 778 783 785 787 788 788 789 789 790 790 791 791 792 792 792 794 795 796 796 797 798 798
675 677 680 683 686 688 691 692 693 695 697 699 702 704 707 710 713 714 715 718 722 724 726 728 729 732 734 737 741 742 742 742 742 743 745 751 758 763 768 771 771 773 777 780 782 784 785 786 786 787 788 788 788 788 789 790 791 792 793 793 794 795 795
673 676 678 681 684 685 687 689 691 693 696 698 700 702 705 707 709 710 713 716 719 721 723 725 727 730 733 736 738 739 740 741 742 745 749 755 762 765 767 769 772 773 773 774 777 780 781 783 784 784 785 785 785 786 787 788 789 790 790 791 791 792 792
672 674 677 680 682 684 686 688 690 692 693 695 696 699 702 703 705 707 710 713 716 718 720 722 725 728 730 733 735 736 738 740 744 749 753 758 763 766 765 765 768 772 773 772 774 777 778 780 781 782 782 782 783 784 784 785 786 787 787 788 789 789 790
670 671 674 676 678 681 682 684 685 687 689 691 693 696 698 700 702 705 708 711 713 715 718 720 723 725 728 730 731 733 735 739 742 746 750 753 756 757 756 756 760 765 769 771 773 774 775 777 779 779 779 779 780 781 781 782 783 784 785 786 786 787 787
668 669 670 672 675 676 678 680 682 684 688 690 692 694 695 698 701 703 706 709 711 713 715 717 719 721 723 725 727 729 732 734 736 739 744 748 749 749 751 755 760 765 769 770 770 771 772 775 776 776 777 777 777 778 778 780 781 782 783 783 784 784 784
667 668 670 672 674 676 677 681 683 686 689 690 690 692 694 697 699 701 704 707 708 710 712 713 715 718 721 723 724 727 730 732 734 737 740 742 745 747 752 758 764 766 768 769 769 769 771 773 774 775 775 774 774 775 776 777 778 779 779 779 780 780 781
666 668 670 672 674 676 678 681 684 686 688 689 690 692 694 696 697 699 702 704 706 708 710 711 714 717 719 721 723 726 729 732 735 738 739 741 742 744 749 756 763 766 766 768 769 769 770 771 772 772 773 772 772 773 773 774 775 775 776 775 776 777 778
667 669 670 672 674 677 679 682 684 685 687 689 691 693 695 697 698 700 702 704 706 708 709 712 714 716 718 721 723 726 730 732 735 738 740 743 744 746 750 755 760 764 766 767 768 768 768 768 768 768 769 771 773 774 774 774 774 774 773 773 773 774 775
670 671 673 676 677 679 680 683 685 687 689 691 692 694 696 698 700 701 703 705 707 709 710 712 713 715 718 721 724 728 731 733 735 737 739 743 746 749 752 754 756 760 764 765 766 766 766 766 766 766 766 767 769 771 772 773 773 772 771 771 771 772 773
675 677 679 681 682 683 684 686 688 690 692 694 694 695 697 698 700 701 703 705 707 708 709 712 714 716 718 721 724 728 730 733 735 736 739 742 745 748 750 753 755 758 762 763 763 763 763 763 763 763 763 764 765 766 768 769 771 771 770 769 769 771 772
681 683 685 686 687 689 689 690 692 693 694 695 696 696 697 698 700 702 703 705 706 708 710 712 714 716 718 721 724 727 729 732 734 736 738 741 744 748 750 752 755 758 760 760 761 761 761 761 762 763 762 762 764 765 766 767 768 769 768 768 769 770 771
684 686 687 688 690 692 692 694 694 694 696 697 697 698 698 699 701 702 704 705 707 708 710 713 715 717 719 721 724 726 729 731 733 735 737 740 744 746 749 751 754 756 757 757 759 761 761 761 762 762 760 761 762 764 764 765 766 767 767 767 768 769 770
689 688 688 688 690 692 694 696 696 696 698 699 700 701 701 701 702 703 704 706 707 709 711 713 715 717 719 722 724 726 728 730 732 734 737 739 741 743 746 748 750 752 754 755 757 758 759 759 759 759 759 760 762 762 763 764 765 766 766 766 767 768 768
694 692 690 690 692 694 695 696 697 699 699 701 703 703 704 704 704 704 705 707 708 709 711 713 715 717 720 722 723 725 728 730 732 734 736 738 740 741 743 746 748 751 753 754 755 756 756 757 757 758 759 759 760 760 761 762 764 765 765 766 766 766 767
697 695 693 694 694 695 696 697 698 700 701 702 704 704 705 706 706 706 707 708 708 710 712 713 715 717 719 721 723 725 727 729 731 733 735 737 739 740 742 744 746 748 750 752 752 753 754 755 756 757 757 757 758 759 760 761 762 763 764 764 765 765 766
699 698 698 697 696 696 696 697 698 698 699 700 701 702 705 707 707 707 708 709 709 711 712 714 716 717 719 720 722 724 726 728 730 732 733 735 736 738 740 740 741 742 745 747 748 749 751 753 754 755 755 756 757 758 759 760 761 762 762 763 763 764 765
699 700 700 700 699 698 696 695 696 696 695 696 699 701 703 705 707 708 708 708 709 710 712 714 715 716 718 720 722 724 725 727 729 730 731 732 733 735 736 737 738 740 742 744 745 747 749 751 752 753 754 755 756 756 757 758 759 760 761 761 762 762 763
700 700 699 699 700 700 698 696 696 695 693 694 698 701 703 705 706 707 706 706 707 709 710 712 714 716 718 719 721 722 724 726 728 729 730 731 731 732 733 735 738 740 742 743 744 746 748 750 751 753 754 754 755 755 756 757 758 759 759 759 760 761 761
700 699 698 698 699 700 700 698 698 697 696 696 698 701 703 704 705 705 705 705 706 707 709 711 713 716 717 718 719 721 722 724 726 727 728 729 729 730 733 735 738 740 741 742 744 745 747 749 751 752 753 753 753 754 755 756 756 757 757 757 758 759 760
701 699 699 698 698 700 701 699 698 698 698 699 700 702 703 704 704 705 706 707 707 708 709 710 712 714 716 717 719 720 722 723 724 725 727 728 729 731 733 735 737 739 740 742 744 745 747 749 750 751 751 752 752 753 754 754 755 755 756 756 757 758 758
Wind_Speed
12 14 14 13 13 14 14 16 20 23 25 27 29 31 32 33 34 34 35 37 38 38 37 37 36 36 35 34 34 33 32 30 28 28 27 26 26 26 26 26 24 23 23 23 21 20 18 16 15 15 14 12 10 8 8 7 6 6 6 5 5 4 4
12 13 13 13 13 14 15 17 22 24 25 27 28 29 31 32 34 35 37 38 40 40 39 37 36 36 35 35 34 33 32 30 28 28 27 26 25 25 25 24 23 22 22 22 21 20 18 16 15 15 15 14 11 9 8 7 6 6 6 5 5 5 6
12 13 14 14 14 15 15 17 21 25 26 27 28 29 32 35 37 39 39 38 39 40 37 36 36 37 36 35 35 34 32 30 29 29 27 26 25 25 24 23 22 21 21 21 21 20 19 17 16 16 16 15 12 11 9 9 8 7 6 7 7 7 8
14 15 15 15 15 15 15 16 20 25 27 29 32 33 36 39 40 39 38 38 38 37 37 37 37 37 36 36 35 33 32 31 31 30 28 26 25 24 24 23 23 21 21 21 21 20 18 18 18 18 17 15 13 12 11 11 11 9 8 9 9 9 10
15 14 13 13 14 14 14 15 19 24 27 29 32 35 37 38 37 35 35 36 36 36 36 34 33 34 35 35 35 35 35 34 33 31 30 27 25 25 25 25 23 21 21 21 21 20 19 19 19 19 17 16 14 14 13 13 13 11 10 11 11 11 11
13 13 13 13 14 14 14 15 21 27 30 31 34 36 37 36 35 35 36 35 35 34 33 31 31 34 35 36 36 37 37 37 35 34 31 29 27 27 27 25 23 21 21 22 21 20 20 19 19 19 18 16 16 15 15 15 13 12 12 13 13 12 12
12 12 13 14 14 14 14 16 21 28 30 32 33 34 34 33 33 36 36 34 34 34 32 32 34 35 36 37 37 38 39 38 37 35 33 31 29 28 27 24 22 22 23 23 22 21 20 19 19 19 18 17 17 17 16 15 14 13 14 14 14 13 12
14 13 13 14 14 14 14 14 19 25 27 28 28 29 31 31 33 34 34 35 36 35 35 36 36 37 38 37 37 38 38 38 38 37 36 33 30 29 27 23 22 23 24 24 23 20 19 19 19 19 19 19 19 18 17 16 15 14 13 13 13 13 12
12 12 13 14 13 13 13 13 18 23 25 27 28 30 32 33 34 34 36 37 37 36 38 39 38 38 37 36 37 38 39 39 40 39 37 35 33 31 28 25 24 25 25 24 22 20 19 20 21 21 20 20 20 19 18 17 15 14 14 14 13 12 12
10 11 12 12 12 11 10 12 16 18 20 24 27 29 31 32 33 34 36 36 36 37 39 39 36 36 35 36 37 38 39 41 41 40 38 37 35 32 29 26 25 25 26 24 22 21 20 21 22 22 22 22 21 19 18 16 15 15 15 14 13 13 13
9 9 10 10 11 10 10 12 13 14 17 22 25 27 30 31 33 34 34 34 35 36 37 36 35 34 35 36 37 37 39 41 42 42 41 39 36 33 30 27 27 28 28 26 24 23 22 22 23 23 23 23 21 19 17 16 15 15 15 14 13 14 14
8 8 10 12 12 11 12 12 12 13 16 21 24 26 28 30 31 32 32 33 34 34 33 33 33 33 34 35 36 37 39 40 42 43 41 37 34 31 27 26 27 29 29 27 26 24 24 23 24 24 25 23 21 19 18 17 17 17 16 15 14 15 16
8 8 9 11 11 11 11 11 12 14 16 20 24 26 28 29 29 30 30 32 33 32 30 30 31 33 34 35 36 38 40 41 42 40 33 28 26 25 23 25 27 28 28 28 26 25 25 25 25 25 25 23 21 20 19 19 18 18 18 16 16 17 17
8 8 8 9 9 11 11 12 12 12 14 19 22 23 25 26 27 28 29 30 30 30 29 30 32 34 34 35 37 38 41 42 39 34 29 28 27 26 27 30 30 29 29 29 27 26 26 26 26 25 25 23 22 21 20 19 19 20 20 19 18 18 18
10 10 10 11 11 11 11 12 12 12 13 16 19 21 22 24 25 26 27 28 28 29 31 32 34 35 35 36 37 39 39 33 27 27 31 34 34 33 34 35 33 30 29 29 28 27 26 27 26 25 25 23 22 20 19 19 19 19 19 19 18 18 18
12 13 13 12 12 11 12 12 11 10 10 12 16 19 20 21 22 24 25 26 26 28 31 33 34 34 34 34 35 34 27 15 16 22 31 38 39 39 38 35 32 30 30 30 30 28 27 27 26 25 25 23 21 20 20 20 20 19 18 18 18 18 19
13 14 13 12 11 10 10 9 8 8 8 11 16 19 19 20 21 22 24 24 25 28 30 31 31 31 32 33 32 27 20 19 24 31 39 44 43 40 37 32 30 30 29 31 32 30 28 28 27 26 25 23 21 21 20 20 20 19 18 18 18 18 20
16 15 12 11 11 10 9 9 9 10 10 12 15 17 19 20 19 21 23 24 25 27 27 28 30 30 30 30 27 24 24 28 34 40 45 46 40 35 34 33 31 28 27 29 31 31 30 28 27 27 25 24 23 22 22 21 20 19 19 19 19 20 21
14 12 11 11 10 10 10 9 9 10 10 12 15 18 20 21 21 23 25 24 24 24 26 28 29 28 26 25 24 25 27 30 35 41 44 41 36 32 33 33 32 29 28 31 33 32 31 29 29 28 27 25 25 24 23 22 21 20 20 20 21 22 23
10 9 9 9 8 9 8 7 7 9 11 14 18 20 21 21 23 25 24 22 22 24 26 27 26 24 22 22 24 26 28 31 34 33 30 30 30 30 32 32 30 30 32 33 32 31 30 29 29 29 28 26 25 24 23 22 21 21 20 21 23 23 24
8 9 8 7 8 8 7 7 7 9 14 19 21 20 20 21 24 24 22 21 23 24 25 25 24 22 22 23 25 28 29 29 24 20 21 27 30 31 33 32 31 31 30 28 27 28 29 30 30 30 29 27 25 25 25 24 22 22 22 23 23 22 23
8 9 9 9 9 9 10 12 13 15 18 20 20 20 20 21 21 20 20 20 22 23 24 23 22 22 22 25 27 29 30 28 25 24 28 34 38 39 39 36 33 30 26 23 23 26 28 29 31 31 29 27 26 26 26 26 24 24 23 21 19 19 22
8 8 8 8 9 10 14 16 18 18 18 17 17 19 19 18 18 18 17 18 19 21 22 22 23 24 25 27 29 31 31 30 31 33 34 37 40 39 33 28 25 23 22 22 24 26 28 29 30 30 29 28 27 27 27 27 25 21 18 16 16 19 21
6 6 5 6 6 6 9 12 13 13 13 13 13 15 15 15 16 17 17 18 20 21 23 23 24 24 26 27 29 30 31 31 33 35 36 38 36 29 23 20 20 22 23 24 26 27 26 25 24 25 26 26 26 26 25 24 21 18 17 16 16 19 21
7 7 7 7 6 6 7 10 11 10 11 11 11 13 16 17 18 19 19 20 20 21 21 19 18 20 23 25 26 28 29 29 29 30 31 32 29 24 22 23 25 26 25 25 24 21 19 18 18 20 22 23 23 23 22 21 20 19 20 19 17 18 18
8 7 8 9 8 9 11 11 9 8 6 6 8 11 14 15 15 14 13 14 15 15 14 12 12 16 20 22 23 24 25 25 25 24 21 18 17 21 25 29 30 28 24 20 16 12 12 14 14 14 16 17 17 16 15 16 17 18 21 20 16 15 15
10 10 11 12 12 12 12 11 9 8 4 1 3 5 9 11 10 8 9 11 12 11 10 10 11 14 18 20 21 21 21 22 23 21 17 13 16 23 29 30 26 21 17 13 11 11 12 15 15 15 16 16 16 16 16 16 19 24 23 18 13 13 15
12 14 15 16 16 15 13 11 11 10 8 5 3 5 9 11 11 11 12 13 12 11 11 12 13 16 19 21 22 22 21 21 21 19 16 16 22 26 24 20 15 13 13 14 16 16 15 18 20 19 18 18 19 20 20 19 22 25 20 13 11 13 13
10 11 12 13 15 13 12 11 10 11 10 8 6 6 9 11 13 14 14 15 14 13 13 14 16 20 22 24 25 24 23 23 21 18 17 17 19 17 13 11 11 13 16 17 17 17 19 21 20 18 18 19 19 19 19 18 19 19 14 10 10 11 11
10 9 9 12 15 14 13 11 10 11 12 9 7 7 8 11 15 16 16 16 16 16 17 18 21 24 26 27 27 27 26 24 22 19 17 15 14 12 12 13 14 16 19 17 14 16 20 20 18 18 20 20 20 21 21 18 15 13 11 9 10 11 12
9 10 11 13 15 15 14 12 11 12 13 11 9 7 8 11 16 18 18 18 18 19 20 22 24 26 27 28 29 29 27 25 23 19 16 14 15 17 18 18 18 19 20 17 15 17 20 19 20 21 21 20 20 22 22 18 14 12 10 10 11 12 13
9 11 13 13 13 12 11 11 11 12 12 11 8 8 9 10 13 16 19 20 20 21 23 25 26 27 28 29 29 29 27 24 22 18 13 12 16 18 18 18 17 16 16 16 16 18 20 21 20 19 19 19 20 20 19 17 14 12 11 12 13 13 13
6 6 9 9 7 7 9 11 11 11 11 10 7 8 9 9 10 14 18 21 22 23 25 26 27 27 27 27 28 27 26 24 22 17 12 10 12 13 12 11 9 9 12 14 14 17 20 21 19 18 18 19 19 18 17 15 12 12 13 14 14 13 13
5 6 6 5 6 9 12 12 11 12 12 10 9 9 10 11 13 16 20 22 23 25 26 26 26 26 25 25 24 24 24 24 21 17 13 9 7 8 9 9 8 10 13 14 14 18 22 22 20 20 21 21 20 18 16 13 13 13 14 14 14 14 13
6 7 8 7 2 6 13 15 15 15 15 14 12 13 13 15 18 21 23 24 25 26 26 25 25 24 24 23 23 23 24 23 20 17 14 12 12 14 14 12 12 15 17 16 15 19 22 22 22 24 24 22 19 16 14 14 13 12 11 12 13 13 13
6 7 8 8 6 4 8 12 13 14 15 15 15 16 18 20 23 25 26 26 27 27 27 26 24 23 22 23 23 24 24 22 19 18 18 18 20 21 19 16 15 16 17 17 18 20 22 22 23 23 22 19 16 13 13 12 10 9 9 10 12 13 12
6 7 7 6 5 7 6 7 9 10 11 15 18 20 21 23 25 26 27 28 28 28 29 29 27 24 24 26 27 26 26 25 24 23 23 22 22 21 19 17 15 15 16 17 18 19 19 19 18 17 16 15 13 12 11 10 9 9 8 8 9 11 11
5 4 5 5 4 6 6 7 9 10 13 15 18 20 22 24 25 26 28 29 30 31 32 33 31 28 28 28 28 27 26 26 26 25 24 23 22 20 19 18 15 12 12 13 14 14 14 14 14 14 13 12 10 10 9 9 9 8 6 6 8 10 10
Wind_Direction
192 197 196 196 197 196 196 195 196 198 199 201 203 205 205 206 207 207 209 212 213 216 216 215 215 214 215 217 219 219 218 218 217 214 212 210 209 207 203 201 200 201 201 199 198 197 197 200 200 201 204 208 214 215 209 206 210 208 205 211 214 227 256
191 197 196 196 197 198 197 195 196 198 200 202 203 204 205 207 208 208 210 212 213 216 216 215 213 213 215 216 217 217 217 217 214 213 211 209 209 209 206 204 203 202 203 202 202 202 203 205 204 204 206 210 216 221 218 214 217 219 219 226 235 249 267
189 196 196 196 196 196 196 193 196 198 199 200 201 203 206 209 210 211 211 212 214 216 216 215 214 213 214 215 217 216 216 216 213 212 212 210 208 208 207 206 204 203 203 202 203 204 207 209 208 207 210 216 222 226 225 221 226 234 238 244 249 257 265
190 196 194 195 196 196 196 193 195 197 199 200 201 203 207 210 212 213 214 214 214 216 215 215 214 213 213 214 215 215 215 215 214 214 214 212 210 207 204 204 204 205 204 203 203 206 209 210 209 209 213 221 226 228 229 228 229 234 243 250 254 259 262
192 192 190 194 196 197 197 194 196 197 199 202 203 205 209 212 213 214 217 217 217 218 218 216 214 212 213 214 214 215 217 216 215 215 213 211 209 207 205 204 203 205 206 205 205 208 210 210 209 213 219 226 229 229 232 233 231 233 241 248 252 257 260
190 189 189 192 194 197 195 194 197 198 199 201 203 207 210 211 212 214 217 218 218 219 219 217 216 214 214 214 214 216 217 215 213 213 211 209 208 207 205 205 206 209 208 206 208 211 212 213 215 219 222 225 227 228 233 234 232 236 243 248 251 255 260
191 192 192 193 193 196 194 194 198 200 202 203 204 208 210 210 211 214 216 216 217 217 216 216 216 215 214 214 213 214 214 212 210 210 209 208 207 207 206 206 211 214 211 207 209 211 213 217 219 220 219 220 225 230 236 236 236 243 247 247 249 253 260
194 190 191 194 193 193 192 194 197 199 202 203 204 208 209 210 212 214 215 215 216 215 215 215 215 214 214 212 211 211 212 210 209 209 208 206 205 206 206 208 214 215 212 209 208 209 213 217 217 216 217 221 227 233 237 239 241 245 244 244 250 255 260
194 190 193 194 192 192 192 193 195 197 199 201 203 207 208 209 211 212 214 214 214 213 214 216 215 214 213 210 210 210 210 209 209 208 206 204 204 204 205 209 214 214 213 210 208 207 210 214 214 216 221 226 231 234 237 241 243 242 243 247 254 257 262
191 191 193 192 192 193 190 191 193 196 199 201 204 207 208 210 211 213 215 214 213 214 215 215 214 213 211 210 210 210 208 207 207 207 206 204 203 202 203 208 212 213 213 211 207 206 208 212 214 219 226 230 232 235 239 242 242 242 248 253 256 260 265
192 189 188 189 190 190 187 189 193 197 200 202 205 208 209 210 212 213 215 215 214 216 216 215 213 212 211 210 210 209 208 207 206 206 206 205 202 201 203 206 210 213 213 209 207 207 208 212 217 223 229 231 233 237 239 241 243 246 251 253 257 263 267
190 186 189 191 189 189 189 190 195 199 202 203 206 208 210 211 213 214 216 216 217 217 216 214 212 211 211 210 209 209 209 208 206 206 206 204 200 199 203 209 214 215 214 210 209 209 211 215 220 225 228 230 234 238 240 242 243 246 249 252 257 263 265
189 191 196 195 190 190 188 192 199 200 202 206 208 210 212 213 214 214 215 217 218 218 216 214 212 212 212 210 210 210 210 209 207 204 201 197 196 199 206 216 221 221 220 216 212 211 214 218 222 225 227 230 234 238 242 244 244 244 246 250 255 260 263
182 196 204 200 195 193 191 196 201 200 202 206 209 212 214 215 216 216 216 218 217 216 215 213 212 212 212 211 211 212 213 211 204 195 190 191 197 204 209 216 225 229 228 223 217 215 217 220 223 226 228 231 236 240 242 243 243 243 244 248 253 259 261
186 201 205 203 198 195 197 200 200 200 203 204 206 210 213 215 217 217 217 219 216 214 214 213 212 212 211 211 213 215 217 212 194 185 189 191 197 205 208 212 220 227 230 230 225 220 220 222 225 227 229 232 237 240 240 239 239 240 242 246 252 257 261
197 204 205 204 201 199 202 203 200 198 198 200 204 208 210 212 214 215 216 217 215 214 214 213 213 212 211 213 216 217 216 195 163 179 192 192 197 205 208 212 219 223 228 232 231 227 223 224 227 228 231 235 237 236 234 234 237 239 242 248 254 260 264
203 208 206 202 201 201 202 199 192 191 192 199 204 206 208 211 212 214 217 216 215 215 214 213 214 214 213 215 216 212 200 176 175 190 197 196 198 201 202 208 219 224 227 231 231 230 227 226 227 229 232 235 236 234 233 234 239 243 248 253 256 262 266
206 205 200 198 198 196 195 192 188 191 195 199 201 202 207 210 210 213 216 215 214 215 213 213 215 215 215 215 211 204 196 188 189 196 198 195 195 195 195 203 214 220 227 233 233 230 228 227 228 230 234 237 237 236 236 238 243 248 252 255 257 261 265
205 197 191 195 196 191 192 193 191 195 195 194 198 205 210 210 209 215 218 215 212 212 210 212 215 215 213 212 206 201 198 196 197 200 198 191 188 190 194 203 210 209 216 229 233 232 230 230 232 235 238 240 239 239 240 242 246 250 253 256 258 261 263
191 184 185 187 188 188 189 186 183 189 195 201 209 214 214 213 216 221 220 214 209 210 210 211 212 211 209 208 204 201 201 201 202 203 193 180 182 192 198 204 207 205 210 222 229 232 234 235 237 239 240 241 241 242 244 246 250 255 258 259 262 265 265
174 168 175 175 176 179 174 172 174 182 199 210 215 214 213 216 221 221 217 211 208 207 208 208 207 206 205 203 203 204 204 200 195 187 175 172 182 197 203 202 201 205 216 225 228 233 240 242 242 243 241 242 243 243 246 250 253 257 259 262 266 272 271
177 166 171 173 174 179 179 181 186 191 202 212 212 209 212 217 219 216 211 207 205 203 205 204 202 201 201 202 204 205 202 194 185 179 176 179 187 197 201 198 194 200 216 230 231 236 244 246 245 245 243 242 244 245 248 252 254 257 261 265 273 279 278
170 157 167 173 174 185 188 189 193 195 199 202 201 205 210 213 213 210 203 199 198 199 200 200 200 200 200 203 205 203 199 193 188 185 182 185 192 197 196 193 192 199 216 230 233 237 245 248 247 247 244 243 244 246 248 252 254 256 261 268 279 287 284
134 120 133 149 150 164 175 183 192 196 195 193 197 207 212 211 209 204 196 193 193 194 197 200 202 201 200 203 204 201 198 194 191 188 186 190 196 193 182 181 191 201 213 228 236 239 244 249 251 250 247 245 245 245 247 250 250 249 253 261 275 286 285
90 84 87 95 101 119 147 167 178 181 184 191 206 217 216 210 205 199 194 191 189 190 194 198 200 198 199 203 203 199 196 192 190 189 189 191 192 181 169 175 190 203 219 237 245 244 245 249 253 253 252 250 246 242 241 241 241 244 252 261 272 280 278
83 85 84 82 94 121 136 143 143 141 161 205 234 228 212 203 197 190 185 181 177 179 185 188 192 196 198 200 196 191 188 185 184 184 183 182 175 168 170 178 190 208 230 243 245 244 244 247 248 250 253 248 240 238 239 242 250 258 262 265 269 271 269
64 64 66 66 74 96 109 106 90 81 77 324 279 215 191 183 169 146 142 151 156 163 173 178 182 185 187 186 180 176 175 177 178 174 168 163 166 172 179 186 196 219 241 245 248 256 256 253 251 247 245 236 230 235 240 249 267 273 271 269 268 265 264
47 45 46 49 53 64 75 72 62 61 61 56 83 147 168 163 140 125 129 138 146 160 170 170 168 169 170 168 163 160 163 168 172 171 167 172 177 180 186 198 217 247 258 253 257 260 254 252 251 243 235 228 225 233 239 248 263 270 270 269 265 260 258
48 43 40 44 43 46 59 67 63 62 67 73 94 131 156 148 128 122 127 133 145 161 165 162 162 161 159 157 156 157 160 165 167 167 166 172 179 184 199 223 243 256 255 255 260 253 241 241 242 234 227 223 225 239 252 256 258 259 259 256 253 252 257
53 51 49 52 47 42 50 63 66 66 70 78 95 119 148 146 131 125 129 139 151 160 160 158 159 156 154 154 156 158 163 168 170 167 165 169 179 191 211 228 237 240 237 239 245 241 235 235 232 226 224 223 227 243 255 252 245 242 241 240 245 253 261
43 45 52 59 57 52 54 61 66 69 71 74 88 116 146 150 140 134 138 148 157 160 158 157 156 155 155 156 160 164 167 167 166 162 162 173 188 197 204 211 215 219 222 221 222 228 233 233 228 224 222 222 227 237 240 234 227 226 228 236 248 255 257
35 37 48 55 58 62 70 76 75 71 71 74 92 127 145 151 150 146 148 155 161 162 161 159 158 158 160 162 168 173 173 171 169 165 161 172 184 189 194 200 206 215 223 223 221 224 231 233 229 225 225 230 234 231 223 214 213 219 230 242 249 250 249
35 36 56 69 84 96 100 100 95 87 83 85 103 131 146 158 165 160 157 160 163 164 164 162 160 162 166 171 177 180 181 182 182 180 178 184 190 193 196 199 203 219 230 231 229 230 232 233 231 228 229 233 230 218 206 204 212 226 237 243 244 242 239
9 7 28 62 115 129 125 123 123 121 120 127 140 149 158 170 173 168 164 163 163 164 164 163 165 168 173 177 179 183 187 189 190 193 199 203 194 181 175 172 174 194 213 224 233 234 231 228 227 230 232 226 212 200 196 207 224 235 241 242 240 235 230
348 341 338 339 338 150 145 144 149 150 148 151 157 159 164 170 171 170 168 163 163 165 164 166 170 174 175 177 178 183 190 192 194 195 189 169 151 150 157 172 192 204 209 218 230 233 229 224 227 234 231 216 201 196 203 216 228 239 245 243 235 228 226
332 324 321 323 308 237 174 160 166 169 160 156 159 159 161 164 165 167 167 164 165 167 166 165 166 166 168 175 180 184 188 187 184 178 168 159 157 161 169 187 206 212 214 221 230 233 230 230 237 239 227 209 200 204 211 220 234 242 244 239 228 223 227
318 308 307 298 256 230 210 185 182 174 156 153 158 158 157 159 161 164 166 164 164 165 163 159 157 156 162 171 176 179 178 174 170 169 169 169 172 176 183 193 202 210 219 227 233 235 233 233 233 226 212 204 205 208 211 224 240 243 242 237 224 220 227
330 309 297 281 231 197 179 163 157 151 147 153 159 159 159 162 163 163 164 164 163 163 160 158 157 159 165 169 172 174 174 171 172 173 174 175 180 187 194 197 197 201 214 221 220 218 214 209 203 198 197 203 208 209 215 227 234 237 239 229 219 219 224